Wind_Speed
5 5 7 10 4 10 14 8 7 7 5 9 10 14 19 12 5 3 14 17 24 27 35 35 35 32 32 33 32 30 30 24 17 8 4 5 6 8 7 7 10 11 12 14 14 13 14 16 18
5 5 9 5 4 13 6 6 12 10 11 12 9 7 8 6 6 3 10 21 20 23 33 28 32 32 30 32 32 31 28 28 20 15 8 5 5 7 11 7 9 10 12 13 14 15 15 16 18
2 7 3 5 11 13 8 5 8 11 10 5 6 9 4 4 7 6 11 16 18 18 24 25 29 32 30 30 31 32 30 24 24 13 13 7 5 6 13 13 10 14 14 8 10 13 15 19 19
5 8 8 15 21 19 16 9 6 10 11 10 11 11 9 8 4 8 11 13 16 19 25 23 27 32 31 31 31 30 31 28 25 15 9 11 5 3 11 15 13 15 16 16 11 10 17 20 19
2 8 14 18 22 18 16 14 13 11 10 12 3 8 7 6 6 6 10 14 18 23 28 32 29 31 32 30 30 29 30 30 27 20 16 11 8 5 6 9 17 14 21 19 17 14 18 19 19
4 9 14 16 19 16 14 12 12 14 13 7 12 12 10 9 9 8 10 13 17 21 24 30 27 30 29 30 28 30 28 29 29 25 18 14 9 3 8 6 9 13 16 18 13 14 16 17 18
10 13 17 19 17 14 9 8 10 11 10 12 4 11 8 11 9 8 8 13 16 20 22 22 25 25 27 29 28 29 29 25 27 27 21 14 11 8 3 3 5 9 15 15 14 16 19 18 19
10 13 17 15 12 13 8 10 12 12 11 7 9 4 7 9 8 9 10 12 16 19 22 25 26 27 26 24 29 27 28 28 26 25 25 21 13 9 9 9 7 7 15 18 16 20 20 19 22
4 11 12 9 11 11 6 12 11 10 12 13 10 11 7 6 8 10 12 14 17 20 22 24 27 28 28 25 26 29 26 34 25 26 26 18 18 14 11 8 12 6 10 14 15 21 18 19 22
10 12 12 13 14 12 8 11 6 4 8 8 8 7 4 5 9 11 13 15 17 20 22 24 25 26 27 25 25 23 25 31 28 24 25 21 18 19 13 10 6 4 5 12 17 18 18 20 22
19 18 15 15 11 11 11 8 1 3 6 6 5 5 5 7 9 12 13 14 15 17 20 23 24 25 27 25 24 23 22 23 27 24 24 24 16 17 16 13 8 1 4 9 16 18 18 18 24
22 16 16 13 7 6 9 7 7 5 8 5 4 5 6 9 10 10 14 14 16 16 18 21 23 24 25 24 24 23 22 22 21 25 25 25 24 17 18 15 12 2 1 11 14 18 20 19 26
18 15 14 11 9 9 2 5 6 6 3 2 2 3 6 8 10 12 11 13 14 14 16 19 21 23 25 23 24 22 21 21 21 20 22 24 27 23 19 17 13 9 6 12 16 19 21 19 26
13 15 13 10 8 5 3 6 4 6 3 3 4 5 5 7 9 11 11 12 11 14 13 17 20 21 24 23 23 22 20 20 19 19 20 20 24 26 25 20 17 12 6 11 19 18 17 16 21
15 15 10 6 5 3 4 8 2 5 5 5 6 7 6 8 9 10 9 11 13 13 12 16 18 21 23 23 23 21 20 20 18 17 17 19 20 24 23 22 18 15 13 13 20 21 18 16 21
6 6 5 6 1 5 5 11 6 5 5 6 7 8 9 11 12 11 11 12 14 14 11 15 16 20 24 24 22 21 19 19 17 16 15 17 19 22 24 21 18 17 14 12 11 27 22 19 19
5 7 6 8 1 2 4 7 6 4 5 7 9 10 10 11 14 15 15 13 15 15 14 14 15 18 21 26 22 21 19 18 17 16 15 17 17 21 20 20 21 18 16 12 10 18 8 17 20
10 10 4 6 5 5 9 9 2 4 8 7 10 11 12 13 15 17 16 15 15 18 17 14 16 18 19 23 22 21 19 18 17 15 15 16 16 17 17 18 21 19 18 14 10 9 16 23 27
6 7 4 7 6 8 3 7 8 3 6 8 10 13 14 15 20 20 17 14 16 17 15 16 15 16 20 23 23 21 19 20 17 15 15 15 15 16 18 17 20 20 19 16 13 11 18 24 26
9 11 10 4 1 5 10 12 7 2 4 8 12 15 15 15 16 18 18 17 15 17 15 12 12 13 19 19 19 19 17 19 17 13 15 13 14 14 16 16 18 19 18 16 13 13 12 23 35
5 12 10 7 11 8 14 10 2 5 3 6 10 10 12 14 17 17 21 15 16 18 13 10 10 13 15 16 16 19 18 16 16 16 15 15 14 12 14 15 16 18 18 16 16 14 16 7 27
4 12 7 5 8 6 7 6 3 1 10 7 11 13 13 13 14 17 17 16 17 15 12 8 11 12 13 14 15 15 18 17 18 17 15 16 13 9 11 16 16 17 19 17 16 15 15 9 2
6 9 6 6 7 9 3 7 6 5 13 12 12 14 13 13 14 13 16 16 16 16 14 6 10 11 13 11 13 15 17 18 18 16 15 14 12 9 14 16 16 18 18 19 19 17 16 11 12
11 11 12 6 7 5 6 4 3 8 11 15 14 15 14 13 13 14 14 14 12 11 13 9 10 12 12 12 12 14 16 17 17 16 15 22 21 15 14 16 16 16 19 20 19 18 17 15 12
11 15 1 4 5 6 3 4 3 9 13 11 13 14 13 11 11 11 14 12 12 12 12 12 9 12 11 11 11 13 15 15 15 15 12 19 20 14 17 15 15 16 19 20 21 18 18 17 13
8 8 4 5 6 9 5 3 5 6 8 5 9 12 11 10 10 11 11 11 11 11 10 10 11 10 11 10 11 13 12 13 13 14 12 13 13 15 13 12 14 14 16 19 20 18 18 18 13
5 4 4 5 8 5 1 3 5 5 11 12 12 12 11 9 9 9 10 8 9 9 8 9 10 11 10 11 12 13 11 10 11 12 10 11 11 11 13 13 13 13 13 15 17 18 16 18 16
5 4 3 2 5 6 4 6 4 10 12 13 14 12 11 10 9 8 8 6 6 6 8 7 8 9 10 10 12 11 11 10 10 11 10 11 11 11 15 14 12 13 15 15 17 17 18 16 14
4 3 2 4 3 4 6 3 1 6 10 12 13 11 10 9 8 6 6 5 4 4 4 5 7 9 10 11 9 8 8 9 10 9 8 8 10 11 13 13 12 14 15 15 15 17 14 14 13
5 6 4 4 2 4 4 7 3 2 7 11 12 9 9 7 7 6 6 5 5 3 4 4 5 7 9 8 7 7 10 9 7 10 9 9 12 13 12 12 12 13 15 16 18 18 17 18 18
Wind_Direction
335 284 244 238 155 48 63 52 41 41 68 71 60 80 89 56 18 53 331 341 341 343 0 349 353 353 2 7 11 14 21 25 27 27 288 263 220 196 178 173 167 158 153 150 152 149 146 147 144
314 266 242 261 180 133 84 77 62 55 119 129 73 105 49 74 33 24 342 337 349 354 3 350 352 357 5 8 10 14 14 21 24 26 23 285 233 203 194 171 163 147 148 151 152 155 155 157 150
298 339 18 15 31 69 107 114 101 113 129 137 117 70 87 29 58 353 343 347 350 360 5 356 355 1 6 8 10 13 13 13 15 25 20 17 262 205 177 178 154 159 154 155 160 158 167 160 156
264 127 65 83 83 72 96 153 124 135 77 97 138 89 105 51 15 351 358 359 2 355 2 360 5 4 5 9 8 11 11 11 13 5 6 11 18 218 204 192 170 174 187 166 173 173 172 163 160
125 71 95 94 89 86 78 72 77 87 70 51 70 86 81 49 34 13 6 5 3 5 3 8 5 5 5 8 9 9 10 11 9 7 1 4 16 46 202 157 199 196 191 187 169 183 177 167 165
117 138 113 103 103 94 70 59 75 79 70 57 88 95 82 73 39 30 14 14 11 7 7 8 4 8 353 8 6 10 9 8 9 6 5 357 359 46 110 151 194 195 195 178 191 201 192 172 172
60 88 103 111 107 83 72 57 42 69 54 45 43 81 94 54 32 27 17 16 15 12 10 6 8 6 1 350 6 10 7 7 8 5 4 357 346 355 232 158 172 197 211 215 201 215 188 175 186
82 108 119 122 107 94 93 76 46 36 64 80 343 28 69 35 16 11 9 11 15 13 10 8 7 5 4 355 1 4 8 6 4 3 4 358 351 337 1 258 256 221 209 222 256 193 186 191 185
165 104 91 90 102 120 118 96 69 70 78 63 64 67 61 29 6 5 6 7 8 10 10 8 6 4 3 359 357 354 4 358 4 2 3 8 354 349 345 317 264 261 219 226 205 191 198 196 187
81 94 71 77 93 110 94 91 106 126 105 97 93 89 51 3 2 2 5 5 6 7 5 5 7 4 2 359 357 355 350 356 360 3 2 1 0 346 345 336 305 233 210 211 197 194 193 195 193
79 95 99 83 80 97 107 97 66 119 108 36 56 55 21 350 2 356 356 6 3 1 5 1 2 4 1 357 356 353 350 350 351 359 356 2 10 347 348 344 6 169 232 204 207 207 194 195 193
94 90 95 93 75 94 64 89 78 20 70 74 61 355 348 345 355 359 353 357 354 359 5 0 1 2 1 355 353 349 347 347 346 353 358 356 3 352 353 347 348 294 190 225 197 194 198 192 199
94 98 99 95 83 69 119 66 99 99 89 97 32 291 331 340 346 344 345 347 350 354 2 358 356 2 359 355 350 346 344 345 343 346 349 358 355 359 349 348 340 331 257 239 219 208 205 196 202
119 114 109 100 99 64 128 110 276 137 189 214 259 298 319 330 332 327 337 338 335 338 354 352 352 358 356 353 349 342 339 340 340 343 347 348 353 350 357 350 342 323 298 257 228 218 204 193 197
129 117 125 96 80 106 330 186 177 129 198 257 279 286 298 300 293 314 324 318 316 319 345 342 345 351 351 349 345 339 335 334 336 338 344 350 352 344 352 349 340 339 306 294 234 221 216 191 196
174 216 208 90 216 118 256 85 129 175 213 264 284 285 289 294 301 297 306 303 303 316 330 328 341 341 346 344 340 336 331 328 329 335 339 347 346 346 344 343 343 342 323 294 254 227 213 187 194
159 33 21 148 88 314 251 349 124 195 245 285 299 294 291 291 292 293 295 291 302 310 315 312 330 336 343 336 335 332 329 325 326 328 336 345 347 343 341 345 344 345 331 306 287 233 198 190 195
7 0 4 30 70 313 277 271 176 207 247 283 307 303 296 295 294 293 289 291 298 299 303 310 321 333 334 328 328 330 329 326 323 325 336 339 346 341 338 338 342 349 341 321 295 286 231 216 201
17 352 343 35 43 311 270 281 284 268 228 282 310 331 327 325 324 313 295 272 280 283 293 299 314 324 329 328 333 329 331 325 321 322 329 334 345 343 340 337 345 351 341 332 320 306 249 209 204
8 359 13 117 30 295 315 306 291 293 288 312 321 314 313 305 313 315 303 299 280 282 281 279 297 328 329 330 328 320 328 321 319 319 323 331 340 345 340 340 338 343 340 338 334 323 312 219 192
75 6 356 337 324 256 302 233 130 119 295 278 279 311 309 326 331 327 328 321 298 296 292 288 299 325 328 325 324 324 324 324 328 328 321 334 334 346 343 342 338 341 343 344 338 331 329 223 195
341 5 332 304 308 2 13 342 159 255 298 2 359 344 331 336 332 333 333 324 320 313 317 303 315 317 323 325 327 327 316 327 329 315 323 322 333 343 353 343 343 341 342 345 346 338 322 315 262
18 344 316 294 281 304 90 286 48 193 351 340 348 347 342 340 342 334 336 333 327 318 312 327 318 313 328 320 326 323 326 325 321 320 329 323 331 28 357 342 344 348 344 342 352 349 335 323 269
296 262 222 253 257 232 47 333 358 359 330 346 355 342 342 348 332 342 339 330 319 320 326 344 309 329 318 325 322 319 323 323 322 327 335 342 346 351 343 342 344 342 348 345 351 352 338 318 279
332 330 114 239 211 14 33 275 306 329 348 336 333 333 346 334 351 337 346 346 338 337 330 329 335 324 320 320 322 320 322 321 318 338 347 335 333 336 330 342 341 341 346 348 350 358 341 319 309
339 343 22 304 336 325 165 270 330 309 322 345 327 349 336 348 351 340 351 346 344 341 335 340 330 321 316 323 322 321 323 324 330 335 343 325 323 322 339 338 340 339 345 348 347 357 348 336 314
4 16 1 278 243 266 67 179 241 240 0 358 350 353 347 346 346 350 348 359 341 339 339 346 336 324 331 333 326 322 325 324 326 327 333 328 339 337 334 340 343 344 347 350 354 357 344 351 342
320 349 246 211 322 319 358 277 325 357 352 351 351 355 346 348 350 351 342 355 341 333 330 341 334 328 331 327 326 330 332 333 328 327 347 352 343 343 344 356 355 355 359 360 9 1 5 358 354
183 200 249 268 278 311 315 347 277 343 350 350 342 349 339 346 349 341 332 343 331 319 315 330 335 333 340 338 344 345 335 332 334 344 356 357 349 348 1 6 8 5 7 7 14 8 20 15 9
290 282 263 293 58 263 272 276 159 317 351 334 344 343 340 330 343 334 325 324 308 315 314 333 336 334 349 340 348 352 343 346 348 355 9 6 2 5 9 19 18 13 11 12 14 15 23 20 33
Height
763 760 756 745 756 776 810 842 840 839 851 860 858 857 870 874 874 878 881 878 874 867 856 853 849 845 838 831 825 821 817 815 814 813 813 813 812 814 814 815 814 813 815 818 819 820 821 822 823
763 759 748 739 759 791 840 845 842 843 850 853 857 860 867 879 879 881 880 878 875 867 853 858 852 843 840 834 828 823 821 818 815 814 813 814 815 815 815 813 818 816 818 820 821 822 823 825 824
763 756 752 758 777 795 840 846 842 845 844 845 857 861 866 877 880 881 880 876 874 874 870 863 857 845 841 837 831 826 823 821 818 815 814 814 814 815 814 815 815 818 818 821 822 824 824 825 827
759 758 762 791 816 819 826 829 819 825 830 833 840 856 869 878 879 880 878 876 874 872 869 864 858 849 841 836 833 830 827 823 819 818 816 814 814 815 813 814 815 819 820 822 822 823 825 826 828
757 759 789 810 826 828 828 827 826 833 838 838 835 860 868 877 878 879 878 875 872 869 864 859 856 851 846 840 836 831 827 824 821 818 817 815 815 815 815 812 815 818 822 822 822 825 827 828 829
763 762 795 819 832 835 835 832 831 837 841 843 845 855 867 875 876 876 875 874 872 869 866 858 861 850 853 843 839 834 829 826 823 819 818 817 816 815 817 819 819 819 822 820 822 824 830 828 831
762 773 802 814 829 839 844 840 840 842 843 853 848 855 866 873 875 873 872 871 871 870 869 868 863 859 853 846 843 836 832 829 826 824 820 818 818 817 818 819 819 820 822 822 823 822 829 830 832
770 779 801 806 823 845 847 848 849 845 857 857 854 855 863 874 874 872 870 869 869 870 868 865 862 859 855 853 844 840 837 830 826 828 822 820 818 817 817 817 817 818 820 820 819 824 828 830 831
767 792 811 816 820 847 845 850 855 857 860 862 865 869 875 875 873 871 869 868 869 869 869 866 863 859 855 852 847 843 839 836 832 827 822 822 820 817 816 815 815 815 816 818 821 825 828 830 831
780 805 828 826 831 842 844 849 856 854 859 864 868 873 875 874 873 871 870 869 869 870 870 868 865 863 859 854 850 846 841 838 835 832 827 824 823 819 817 815 814 814 816 819 822 825 827 829 830
805 827 833 839 839 840 849 854 855 855 859 866 869 871 874 873 871 871 869 870 871 871 872 871 868 865 861 857 853 849 845 842 837 835 832 827 823 822 818 816 812 812 816 819 822 824 826 827 829
827 833 840 847 849 847 853 856 862 859 867 871 874 876 874 872 871 871 872 871 872 872 873 873 870 868 864 860 856 852 848 845 841 836 834 829 827 824 820 816 813 813 814 818 820 821 823 825 828
837 844 848 853 855 858 859 861 865 871 873 876 878 877 874 873 872 872 873 872 874 873 873 874 872 870 867 862 859 854 850 846 843 839 837 832 827 823 821 818 816 815 813 816 818 820 821 823 826
843 848 853 855 860 864 861 867 868 871 876 876 875 873 873 874 873 872 872 874 874 873 872 874 873 870 868 864 861 856 851 848 844 840 838 834 827 825 817 817 816 814 812 814 814 818 819 822 824
847 852 852 855 860 862 864 865 862 867 873 871 871 870 869 871 870 870 871 873 871 871 871 874 872 871 869 864 861 856 851 848 844 842 839 836 832 828 822 819 816 811 812 811 812 813 816 820 824
837 832 832 856 859 863 865 848 859 864 866 865 865 865 866 866 867 867 868 871 869 869 869 872 871 871 870 865 860 856 852 848 844 841 838 837 833 829 825 822 817 813 812 812 810 811 811 816 822
823 828 838 851 857 859 858 848 852 861 863 863 860 859 860 861 863 864 864 865 866 867 867 868 869 868 868 865 859 856 852 847 843 840 838 836 834 830 826 822 818 815 813 810 808 807 802 813 820
844 838 833 842 852 855 850 845 845 855 859 860 859 858 857 856 856 857 859 861 864 864 865 865 865 866 866 863 858 854 851 847 843 839 837 836 834 832 829 824 819 815 811 809 807 807 809 812 816
848 844 843 841 856 861 846 845 841 843 852 855 853 852 851 851 851 851 852 854 858 859 861 862 863 865 863 860 857 853 851 848 843 839 837 835 833 832 828 823 820 816 813 810 807 806 806 808 814
851 849 849 849 860 863 842 843 837 841 849 853 855 853 851 850 846 846 847 849 850 852 855 858 859 860 861 860 858 855 851 848 843 839 836 834 833 831 828 824 822 819 815 810 805 805 803 803 808
851 862 864 861 853 847 845 835 842 844 852 850 847 845 846 846 847 846 846 845 848 848 849 853 856 857 859 860 856 854 849 845 841 839 835 833 832 829 828 826 823 818 817 811 805 804 804 799 803
844 867 866 862 853 842 850 847 831 846 842 837 842 844 844 844 846 847 847 847 847 847 848 851 856 856 856 857 855 854 850 845 843 839 834 832 830 828 826 825 821 819 814 811 807 801 802 803 797
863 871 868 860 853 848 841 839 832 836 838 840 842 844 844 845 846 847 848 848 849 849 848 850 855 855 857 855 855 852 849 846 842 838 834 830 828 825 825 823 819 815 813 810 804 800 800 798 801
866 857 848 858 849 845 850 854 834 844 843 841 844 846 845 845 847 847 848 848 846 847 849 850 854 855 854 854 853 852 849 847 842 838 837 833 829 827 827 823 820 816 814 808 804 799 799 800 799
852 841 829 837 833 835 861 858 849 840 843 847 846 844 844 845 846 848 848 849 849 850 851 851 854 854 853 852 851 850 848 846 842 839 837 836 833 829 827 823 820 817 813 808 804 798 800 799 795
864 862 868 873 847 845 855 858 849 843 840 841 839 841 841 842 846 847 850 852 851 851 851 851 853 852 851 851 850 848 846 845 842 841 839 837 834 830 827 824 820 817 812 807 805 799 800 798 797
865 865 873 876 861 862 831 836 842 832 832 836 838 840 840 841 844 847 851 853 854 853 852 852 852 851 850 850 849 848 845 844 842 841 839 836 833 830 826 823 820 818 815 812 807 801 804 796 795
877 877 872 863 872 867 837 835 834 836 838 837 838 840 840 841 844 847 848 849 852 852 851 852 853 851 850 849 848 846 845 844 842 840 838 835 833 830 826 822 820 817 813 809 804 806 802 799 797
869 863 876 877 868 865 855 833 836 839 839 840 838 839 839 841 842 843 844 847 848 850 850 850 851 851 850 850 849 848 846 845 842 839 837 835 833 830 826 822 820 818 815 813 811 809 804 801 800
866 865 865 870 857 856 871 858 828 836 838 835 836 837 839 841 842 844 845 846 847 847 848 849 851 851 851 850 849 849 847 844 842 840 837 835 833 831 827 824 822 819 816 814 812 811 805 802 798